Time,TemperatureF,DewpointF,PressureIn,WindDirection,WindDirectionDegrees,WindSpeedMPH,WindSpeedGustMPH,Humidity,HourlyPrecipIn,Conditions,Clouds,dailyrainin,SoftwareType,DateUTC
2013-03-06 00:00:00,44.5,16.5,30.33,NNW,338,0.0,2.0,32,0.00,,---,0.00,VWS V14.01,2013-03-06 06:00:00,
2013-03-06 00:05:00,44.2,16.9,30.33,North,358,0.0,1.0,33,0.00,,---,0.00,VWS V14.01,2013-03-06 06:05:00,
2013-03-06 00:10:00,43.7,16.5,30.34,North,358,0.0,1.0,33,0.00,,---,0.00,VWS V14.01,2013-03-06 06:10:00,
2013-03-06 00:15:00,43.4,16.2,30.34,NNW,328,0.0,1.0,33,0.00,,---,0.00,VWS V14.01,2013-03-06 06:15:00,
2013-03-06 00:20:00,43.1,16.0,30.34,NNW,346,0.0,1.0,33,0.00,,---,0.00,VWS V14.01,2013-03-06 06:20:00,
2013-03-06 00:25:00,42.9,15.8,30.34,North,9,0.0,2.0,33,0.00,,---,0.00,VWS V14.01,2013-03-06 06:25:00,
2013-03-06 00:30:00,43.0,15.2,30.34,North,6,2.0,2.0,32,0.00,,---,0.00,VWS V14.01,2013-03-06 06:30:00,
2013-03-06 00:35:00,43.1,15.3,30.33,North,354,0.0,2.0,32,0.00,,---,0.00,VWS V14.01,2013-03-06 06:35:00,
2013-03-06 00:40:00,42.9,15.8,30.34,NW,305,1.0,2.0,33,0.00,,---,0.00,VWS V14.01,2013-03-06 06:40:00,
2013-03-06 00:45:00,42.8,15.7,30.34,NW,326,2.0,3.0,33,0.00,,---,0.00,VWS V14.01,2013-03-06 06:45:00,
2013-03-06 00:50:00,42.6,15.5,30.33,NW,307,1.0,3.0,33,0.00,,---,0.00,VWS V14.01,2013-03-06 06:50:00,
2013-03-06 00:55:00,42.7,15.6,30.33,NNE,30,1.0,3.0,33,0.00,,---,0.00,VWS V14.01,2013-03-06 06:55:00,
2013-03-06 01:00:00,42.7,14.9,30.33,NNE,15,2.0,3.0,32,0.00,,---,0.00,VWS V14.01,2013-03-06 07:00:00,
2013-03-06 01:05:00,42.7,14.9,30.33,North,1,0.0,3.0,32,0.00,,---,0.00,VWS V14.01,2013-03-06 07:05:00,
2013-03-06 01:10:00,42.7,14.9,30.33,NNE,30,0.0,4.0,32,0.00,,---,0.00,VWS V14.01,2013-03-06 07:10:00,
2013-03-06 01:15:00,42.7,14.9,30.33,NNW,344,0.0,4.0,32,0.00,,---,0.00,VWS V14.01,2013-03-06 07:15:00,
2013-03-06 01:20:00,42.6,14.8,30.33,North,359,1.0,1.0,32,0.00,,---,0.00,VWS V14.01,2013-03-06 07:20:00,
2013-03-06 01:25:00,42.6,14.8,30.33,NNW,338,1.0,4.0,32,0.00,,---,0.00,VWS V14.01,2013-03-06 07:25:00,
2013-03-06 01:30:00,42.5,14.7,30.33,NW,316,0.0,0.0,32,0.00,,---,0.00,VWS V14.01,2013-03-06 07:30:00,
2013-03-06 01:35:00,42.4,15.4,30.33,NNW,332,1.0,4.0,33,0.00,,---,0.00,VWS V14.01,2013-03-06 07:35:00,
2013-03-06 01:40:00,42.3,15.3,30.33,NE,51,0.0,4.0,33,0.00,,---,0.00,VWS V14.01,2013-03-06 07:40:00,
2013-03-06 01:45:00,42.3,15.9,30.33,NNW,343,1.0,4.0,34,0.00,,---,0.00,VWS V14.01,2013-03-06 07:45:00,
2013-03-06 01:50:00,42.2,15.9,30.33,North,358,2.0,4.0,34,0.00,,---,0.00,VWS V14.01,2013-03-06 07:50:00,
2013-03-06 01:55:00,42.1,15.8,30.33,NNW,334,0.0,4.0,34,0.00,,---,0.00,VWS V14.01,2013-03-06 07:55:00,
2013-03-06 02:00:00,42.1,15.8,30.33,NNE,12,0.0,1.0,34,0.00,,---,0.00,VWS V14.01,2013-03-06 08:00:00,
2013-03-06 02:05:00,42.0,15.7,30.33,NNE,19,1.0,4.0,34,0.00,,---,0.00,VWS V14.01,2013-03-06 08:05:00,
2013-03-06 02:10:00,42.0,15.7,30.33,NNE,13,2.0,4.0,34,0.00,,---,0.00,VWS V14.01,2013-03-06 08:10:00,
2013-03-06 02:15:00,41.9,16.3,30.33,NNE,32,1.0,4.0,35,0.00,,---,0.00,VWS V14.01,2013-03-06 08:15:00,
2013-03-06 02:20:00,41.8,16.2,30.33,NNW,328,2.0,4.0,35,0.00,,---,0.00,VWS V14.01,2013-03-06 08:20:00,
2013-03-06 02:25:00,41.8,16.2,30.33,North,6,0.0,4.0,35,0.00,,---,0.00,VWS V14.01,2013-03-06 08:25:00,
2013-03-06 02:30:00,41.6,16.0,30.33,NNW,334,1.0,2.0,35,0.00,,---,0.00,VWS V14.01,2013-03-06 08:30:00,
2013-03-06 02:35:00,41.5,15.9,30.33,NNE,12,3.0,3.0,35,0.00,,---,0.00,VWS V14.01,2013-03-06 08:35:00,
2013-03-06 02:40:00,41.3,15.7,30.33,North,352,3.0,3.0,35,0.00,,---,0.00,VWS V14.01,2013-03-06 08:40:00,
2013-03-06 02:45:00,41.2,15.6,30.32,NW,314,2.0,6.0,35,0.00,,---,0.00,VWS V14.01,2013-03-06 08:45:00,
2013-03-06 02:50:00,41.1,15.6,30.32,NE,40,0.0,6.0,35,0.00,,---,0.00,VWS V14.01,2013-03-06 08:50:00,
2013-03-06 02:55:00,41.0,15.5,30.32,NNW,348,2.0,6.0,35,0.00,,---,0.00,VWS V14.01,2013-03-06 08:55:00,
2013-03-06 03:00:00,40.9,15.4,30.32,WNW,298,1.0,3.0,35,0.00,,---,0.00,VWS V14.01,2013-03-06 09:00:00,
2013-03-06 03:05:00,40.7,15.2,30.32,North,9,1.0,4.0,35,0.00,,---,0.00,VWS V14.01,2013-03-06 09:05:00,
2013-03-06 03:10:00,40.6,15.1,30.32,NNE,20,0.0,4.0,35,0.00,,---,0.00,VWS V14.01,2013-03-06 09:10:00,
2013-03-06 03:15:00,40.3,15.5,30.32,NW,319,2.0,4.0,36,0.00,,---,0.00,VWS V14.01,2013-03-06 09:15:00,
2013-03-06 03:20:00,40.0,15.2,30.32,NNW,340,0.0,4.0,36,0.00,,---,0.00,VWS V14.01,2013-03-06 09:20:00,
2013-03-06 03:25:00,39.8,15.7,30.32,ENE,78,1.0,4.0,37,0.00,,---,0.00,VWS V14.01,2013-03-06 09:25:00,
2013-03-06 03:30:00,39.6,15.5,30.32,NNE,25,0.0,0.0,37,0.00,,---,0.00,VWS V14.01,2013-03-06 09:30:00,
2013-03-06 03:35:00,39.3,15.2,30.32,North,6,0.0,3.0,37,0.00,,---,0.00,VWS V14.01,2013-03-06 09:35:00,
2013-03-06 03:40:00,39.1,15.6,30.32,NNE,29,1.0,3.0,38,0.00,,---,0.00,VWS V14.01,2013-03-06 09:40:00,
2013-03-06 03:45:00,38.9,15.5,30.32,North,11,0.0,3.0,38,0.00,,---,0.00,VWS V14.01,2013-03-06 09:45:00,
2013-03-06 03:50:00,38.8,16.0,30.32,NE,37,1.0,3.0,39,0.00,,---,0.00,VWS V14.01,2013-03-06 09:50:00,
2013-03-06 03:55:00,38.6,16.4,30.32,North,7,0.0,3.0,40,0.00,,---,0.00,VWS V14.01,2013-03-06 09:55:00,
2013-03-06 04:00:00,38.3,16.1,30.32,NE,50,0.0,1.0,40,0.00,,---,0.00,VWS V14.01,2013-03-06 10:00:00,
2013-03-06 04:05:00,38.3,16.1,30.33,NNW,348,1.0,2.0,40,0.00,,---,0.00,VWS V14.01,2013-03-06 10:05:00,
2013-03-06 04:10:00,38.1,15.9,30.32,NNW,328,0.0,2.0,40,0.00,,---,0.00,VWS V14.01,2013-03-06 10:10:00,
2013-03-06 04:15:00,38.1,16.5,30.32,NNE,20,1.0,3.0,41,0.00,,---,0.00,VWS V14.01,2013-03-06 10:15:00,
2013-03-06 04:20:00,38.1,15.9,30.32,North,4,0.0,3.0,40,0.00,,---,0.00,VWS V14.01,2013-03-06 10:20:00,
2013-03-06 04:25:00,38.0,15.8,30.32,North,354,0.0,5.0,40,0.00,,---,0.00,VWS V14.01,2013-03-06 10:25:00,
2013-03-06 04:30:00,38.0,16.4,30.33,NW,322,2.0,2.0,41,0.00,,---,0.00,VWS V14.01,2013-03-06 10:30:00,
2013-03-06 04:35:00,37.9,16.3,30.33,NNW,343,1.0,2.0,41,0.00,,---,0.00,VWS V14.01,2013-03-06 10:35:00,
2013-03-06 04:40:00,37.7,16.1,30.33,North,356,0.0,3.0,41,0.00,,---,0.00,VWS V14.01,2013-03-06 10:40:00,
2013-03-06 04:45:00,37.7,16.1,30.33,North,8,0.0,3.0,41,0.00,,---,0.00,VWS V14.01,2013-03-06 10:45:00,
2013-03-06 04:50:00,37.8,16.2,30.33,North,352,0.0,3.0,41,0.00,,---,0.00,VWS V14.01,2013-03-06 10:50:00,
2013-03-06 04:55:00,37.7,16.1,30.34,NNW,347,0.0,3.0,41,0.00,,---,0.00,VWS V14.01,2013-03-06 10:55:00,
2013-03-06 05:00:00,37.7,16.7,30.34,NNW,338,1.0,1.0,42,0.00,,---,0.00,VWS V14.01,2013-03-06 11:00:00,
2013-03-06 05:05:00,37.6,16.6,30.34,NNW,335,2.0,3.0,42,0.00,,---,0.00,VWS V14.01,2013-03-06 11:05:00,
2013-03-06 05:10:00,37.6,17.1,30.35,NNE,16,0.0,4.0,43,0.00,,---,0.00,VWS V14.01,2013-03-06 11:10:00,
2013-03-06 05:15:00,37.5,17.6,30.35,North,4,0.0,4.0,44,0.00,,---,0.00,VWS V14.01,2013-03-06 11:15:00,
2013-03-06 05:20:00,37.6,17.7,30.35,NE,51,2.0,4.0,44,0.00,,---,0.00,VWS V14.01,2013-03-06 11:20:00,
2013-03-06 05:25:00,37.6,17.7,30.36,North,6,2.0,4.0,44,0.00,,---,0.00,VWS V14.01,2013-03-06 11:25:00,
2013-03-06 05:30:00,37.5,18.1,30.36,NE,34,1.0,1.0,45,0.00,,---,0.00,VWS V14.01,2013-03-06 11:30:00,
2013-03-06 05:35:00,37.5,18.1,30.36,North,6,0.0,3.0,45,0.00,,---,0.00,VWS V14.01,2013-03-06 11:35:00,
2013-03-06 05:40:00,37.5,18.1,30.36,NNE,29,0.0,4.0,45,0.00,,---,0.00,VWS V14.01,2013-03-06 11:40:00,
2013-03-06 05:45:00,37.4,17.5,30.36,NE,36,2.0,4.0,44,0.00,,---,0.00,VWS V14.01,2013-03-06 11:45:00,
2013-03-06 05:50:00,37.4,17.5,30.36,ENE,67,0.0,4.0,44,0.00,,---,0.00,VWS V14.01,2013-03-06 11:50:00,
2013-03-06 05:55:00,37.3,17.4,30.36,North,9,0.0,4.0,44,0.00,,---,0.00,VWS V14.01,2013-03-06 11:55:00,
2013-03-06 06:00:00,37.2,17.8,30.36,ENE,67,1.0,2.0,45,0.00,,---,0.00,VWS V14.01,2013-03-06 12:00:00,
2013-03-06 06:05:00,37.2,17.8,30.36,NNE,22,3.0,3.0,45,0.00,,---,0.00,VWS V14.01,2013-03-06 12:05:00,
2013-03-06 06:10:00,37.3,17.4,30.36,NNE,29,1.0,4.0,44,0.00,,---,0.00,VWS V14.01,2013-03-06 12:10:00,
2013-03-06 06:15:00,37.7,17.8,30.37,ENE,59,0.0,7.0,44,0.00,,---,0.00,VWS V14.01,2013-03-06 12:15:00,
2013-03-06 06:20:00,37.9,18.0,30.37,NNE,32,4.0,7.0,44,0.00,,---,0.00,VWS V14.01,2013-03-06 12:20:00,
2013-03-06 06:25:00,38.1,17.6,30.37,NE,47,2.0,7.0,43,0.00,,---,0.00,VWS V14.01,2013-03-06 12:25:00,
2013-03-06 06:30:00,38.3,17.8,30.37,NNE,31,5.0,5.0,43,0.00,,---,0.00,VWS V14.01,2013-03-06 12:30:00,
2013-03-06 06:35:00,38.6,18.0,30.37,North,8,4.0,7.0,43,0.00,,---,0.00,VWS V14.01,2013-03-06 12:35:00,
2013-03-06 06:40:00,38.9,17.8,30.37,NE,37,1.0,9.0,42,0.00,,---,0.00,VWS V14.01,2013-03-06 12:40:00,
2013-03-06 06:45:00,39.1,18.0,30.37,NNE,27,6.0,9.0,42,0.00,,---,0.00,VWS V14.01,2013-03-06 12:45:00,
2013-03-06 06:50:00,39.3,18.1,30.37,ENE,59,4.0,9.0,42,0.00,,---,0.00,VWS V14.01,2013-03-06 12:50:00,
2013-03-06 06:55:00,39.3,18.1,30.37,NNE,30,5.0,9.0,42,0.00,,---,0.00,VWS V14.01,2013-03-06 12:55:00,
2013-03-06 07:00:00,39.5,18.3,30.38,North,360,4.0,7.0,42,0.00,,---,0.00,VWS V14.01,2013-03-06 13:00:00,
2013-03-06 07:05:00,39.5,18.3,30.38,NE,34,3.0,9.0,42,0.00,,---,0.00,VWS V14.01,2013-03-06 13:05:00,
2013-03-06 07:10:00,39.7,18.5,30.38,North,356,4.0,9.0,42,0.00,,---,0.00,VWS V14.01,2013-03-06 13:10:00,
2013-03-06 07:15:00,39.9,18.7,30.38,NE,51,3.0,9.0,42,0.00,,---,0.00,VWS V14.01,2013-03-06 13:15:00,
2013-03-06 07:20:00,40.2,18.4,30.39,NNE,13,2.0,9.0,41,0.00,,---,0.00,VWS V14.01,2013-03-06 13:20:00,
2013-03-06 07:25:00,40.5,18.7,30.39,NE,53,6.0,9.0,41,0.00,,---,0.00,VWS V14.01,2013-03-06 13:25:00,
2013-03-06 07:30:00,41.1,19.2,30.39,North,352,4.0,6.0,41,0.00,,---,0.00,VWS V14.01,2013-03-06 13:30:00,
2013-03-06 07:35:00,41.7,19.2,30.39,NW,322,4.0,6.0,40,0.00,,---,0.00,VWS V14.01,2013-03-06 13:35:00,
2013-03-06 07:40:00,42.3,19.7,30.40,NW,323,5.0,10.0,40,0.00,,---,0.00,VWS V14.01,2013-03-06 13:40:00,
2013-03-06 07:45:00,43.1,19.8,30.40,North,358,6.0,10.0,39,0.00,,---,0.00,VWS V14.01,2013-03-06 13:45:00,
2013-03-06 07:50:00,43.4,19.5,30.40,NNW,342,3.0,10.0,38,0.00,,---,0.00,VWS V14.01,2013-03-06 13:50:00,
2013-03-06 07:55:00,43.5,19.6,30.41,ENE,65,2.0,10.0,38,0.00,,---,0.00,VWS V14.01,2013-03-06 13:55:00,
2013-03-06 08:00:00,43.6,19.7,30.41,North,9,9.0,9.0,38,0.00,,---,0.00,VWS V14.01,2013-03-06 14:00:00,
2013-03-06 08:05:00,43.8,19.9,30.41,NE,41,4.0,13.0,38,0.00,,---,0.00,VWS V14.01,2013-03-06 14:05:00,
2013-03-06 08:10:00,44.1,20.1,30.41,NNE,18,6.0,13.0,38,0.00,,---,0.00,VWS V14.01,2013-03-06 14:10:00,
2013-03-06 08:15:00,44.3,20.3,30.41,ENE,74,5.0,13.0,38,0.00,,---,0.00,VWS V14.01,2013-03-06 14:15:00,
2013-03-06 08:20:00,44.3,20.3,30.41,ENE,66,3.0,13.0,38,0.00,,---,0.00,VWS V14.01,2013-03-06 14:20:00,
2013-03-06 08:25:00,44.1,20.1,30.41,ENE,58,4.0,13.0,38,0.00,,---,0.00,VWS V14.01,2013-03-06 14:25:00,
2013-03-06 08:30:00,44.1,20.1,30.42,NE,36,7.0,7.0,38,0.00,,---,0.00,VWS V14.01,2013-03-06 14:30:00,
2013-03-06 08:35:00,44.1,20.1,30.41,NE,34,5.0,12.0,38,0.00,,---,0.00,VWS V14.01,2013-03-06 14:35:00,
2013-03-06 08:40:00,44.3,20.9,30.41,NE,43,3.0,12.0,39,0.00,,---,0.00,VWS V14.01,2013-03-06 14:40:00,
2013-03-06 08:45:00,44.7,20.7,30.41,ENE,75,4.0,12.0,38,0.00,,---,0.00,VWS V14.01,2013-03-06 14:45:00,
2013-03-06 08:50:00,44.9,20.9,30.41,NE,41,6.0,14.0,38,0.00,,---,0.00,VWS V14.01,2013-03-06 14:50:00,
2013-03-06 08:55:00,45.1,20.4,30.42,ENE,63,6.0,14.0,37,0.00,,---,0.00,VWS V14.01,2013-03-06 14:55:00,
2013-03-06 09:00:00,45.4,20.7,30.42,NE,53,7.0,9.0,37,0.00,,---,0.00,VWS V14.01,2013-03-06 15:00:00,
2013-03-06 09:05:00,46.2,20.7,30.42,ENE,61,7.0,12.0,36,0.00,,---,0.00,VWS V14.01,2013-03-06 15:05:00,
2013-03-06 09:10:00,46.8,21.3,30.42,NE,53,7.0,12.0,36,0.00,,---,0.00,VWS V14.01,2013-03-06 15:10:00,
2013-03-06 09:15:00,46.9,20.7,30.42,NNE,25,10.0,13.0,35,0.00,,---,0.00,VWS V14.01,2013-03-06 15:15:00,
2013-03-06 09:20:00,47.0,20.8,30.42,East,80,8.0,13.0,35,0.00,,---,0.00,VWS V14.01,2013-03-06 15:20:00,
2013-03-06 09:25:00,47.2,21.0,30.42,NNE,27,5.0,13.0,35,0.00,,---,0.00,VWS V14.01,2013-03-06 15:25:00,
2013-03-06 09:30:00,47.4,21.1,30.42,ENE,74,6.0,6.0,35,0.00,,---,0.00,VWS V14.01,2013-03-06 15:30:00,
2013-03-06 09:35:00,47.5,21.2,30.43,NE,49,4.0,10.0,35,0.00,,---,0.00,VWS V14.01,2013-03-06 15:35:00,
2013-03-06 09:40:00,47.8,21.5,30.43,NE,50,4.0,13.0,35,0.00,,---,0.00,VWS V14.01,2013-03-06 15:40:00,
2013-03-06 09:45:00,48.3,21.2,30.43,NNE,24,11.0,13.0,34,0.00,,---,0.00,VWS V14.01,2013-03-06 15:45:00,
2013-03-06 09:50:00,48.5,21.4,30.43,NE,49,9.0,13.0,34,0.00,,---,0.00,VWS V14.01,2013-03-06 15:50:00,
2013-03-06 09:55:00,48.9,21.8,30.43,ENE,68,5.0,13.0,34,0.00,,---,0.00,VWS V14.01,2013-03-06 15:55:00,
2013-03-06 10:00:00,49.2,22.0,30.43,North,9,8.0,8.0,34,0.00,,---,0.00,VWS V14.01,2013-03-06 16:00:00,
2013-03-06 10:05:00,49.9,21.2,30.43,East,80,8.0,13.0,32,0.00,,---,0.00,VWS V14.01,2013-03-06 16:05:00,
2013-03-06 10:10:00,50.5,21.8,30.43,North,352,7.0,14.0,32,0.00,,---,0.00,VWS V14.01,2013-03-06 16:10:00,
2013-03-06 10:15:00,50.7,21.9,30.42,ENE,68,2.0,14.0,32,0.00,,---,0.00,VWS V14.01,2013-03-06 16:15:00,
2013-03-06 10:20:00,51.1,22.3,30.42,NNE,28,5.0,14.0,32,0.00,,---,0.00,VWS V14.01,2013-03-06 16:20:00,
2013-03-06 10:25:00,51.5,21.9,30.42,ENE,70,6.0,14.0,31,0.00,,---,0.00,VWS V14.01,2013-03-06 16:25:00,
2013-03-06 10:30:00,52.0,22.3,30.42,NNE,19,8.0,10.0,31,0.00,,---,0.00,VWS V14.01,2013-03-06 16:30:00,
2013-03-06 10:35:00,52.2,22.5,30.42,NE,54,5.0,10.0,31,0.00,,---,0.00,VWS V14.01,2013-03-06 16:35:00,
2013-03-06 10:40:00,53.2,22.6,30.42,NE,36,5.0,10.0,30,0.00,,---,0.00,VWS V14.01,2013-03-06 16:40:00,
2013-03-06 10:45:00,53.2,22.6,30.42,NE,55,3.0,13.0,30,0.00,,---,0.00,VWS V14.01,2013-03-06 16:45:00,
2013-03-06 10:50:00,53.2,22.6,30.42,NE,52,9.0,13.0,30,0.00,,---,0.00,VWS V14.01,2013-03-06 16:50:00,
2013-03-06 10:55:00,53.8,22.3,30.42,NNE,29,8.0,14.0,29,0.00,,---,0.00,VWS V14.01,2013-03-06 16:55:00,
2013-03-06 11:00:00,54.1,22.6,30.42,ENE,62,7.0,7.0,29,0.00,,---,0.00,VWS V14.01,2013-03-06 17:00:00,
2013-03-06 11:05:00,54.8,23.2,30.42,NNE,29,5.0,10.0,29,0.00,,---,0.00,VWS V14.01,2013-03-06 17:05:00,
2013-03-06 11:10:00,54.9,22.4,30.41,East,87,4.0,10.0,28,0.00,,---,0.00,VWS V14.01,2013-03-06 17:10:00,
2013-03-06 11:15:00,55.7,23.1,30.41,NNE,32,7.0,13.0,28,0.00,,---,0.00,VWS V14.01,2013-03-06 17:15:00,
2013-03-06 11:20:00,56.2,21.8,30.41,NE,44,5.0,13.0,26,0.00,,---,0.00,VWS V14.01,2013-03-06 17:20:00,
2013-03-06 11:25:00,56.5,22.9,30.41,East,79,8.0,13.0,27,0.00,,---,0.00,VWS V14.01,2013-03-06 17:25:00,
2013-03-06 11:30:00,57.1,22.6,30.41,ENE,60,6.0,6.0,26,0.00,,---,0.00,VWS V14.01,2013-03-06 17:30:00,
2013-03-06 11:35:00,57.1,23.5,30.41,ENE,63,5.0,11.0,27,0.00,,---,0.00,VWS V14.01,2013-03-06 17:35:00,
2013-03-06 11:40:00,56.5,21.1,30.40,ENE,64,7.0,12.0,25,0.00,,---,0.00,VWS V14.01,2013-03-06 17:40:00,
2013-03-06 11:45:00,56.5,22.9,30.40,NNW,342,3.0,12.0,27,0.00,,---,0.00,VWS V14.01,2013-03-06 17:45:00,
2013-03-06 11:50:00,56.6,22.1,30.39,NE,34,6.0,12.0,26,0.00,,---,0.00,VWS V14.01,2013-03-06 17:50:00,
2013-03-06 11:55:00,56.7,21.3,30.39,NNE,18,6.0,12.0,25,0.00,,---,0.00,VWS V14.01,2013-03-06 17:55:00,
2013-03-06 12:00:00,57.2,23.5,30.39,SE,139,2.0,4.0,27,0.00,,---,0.00,VWS V14.01,2013-03-06 18:00:00,
2013-03-06 12:05:00,58.0,23.3,30.38,East,81,6.0,11.0,26,0.00,,---,0.00,VWS V14.01,2013-03-06 18:05:00,
2013-03-06 12:10:00,57.9,22.3,30.38,ENE,65,6.0,12.0,25,0.00,,---,0.00,VWS V14.01,2013-03-06 18:10:00,
2013-03-06 12:15:00,58.3,22.6,30.37,ENE,68,11.0,12.0,25,0.00,,---,0.00,VWS V14.01,2013-03-06 18:15:00,
2013-03-06 12:30:00,58.8,21.1,30.36,North,356,5.0,5.0,23,0.00,,---,0.00,VWS V14.01,2013-03-06 18:30:00,
2013-03-06 12:35:00,58.8,23.1,30.36,East,81,4.0,10.0,25,0.00,,---,0.00,VWS V14.01,2013-03-06 18:35:00,
2013-03-06 12:40:00,59.7,20.8,30.36,NE,40,11.0,11.0,22,0.00,,---,0.00,VWS V14.01,2013-03-06 18:40:00,
2013-03-06 12:45:00,59.6,21.8,30.35,NE,49,8.0,12.0,23,0.00,,---,0.00,VWS V14.01,2013-03-06 18:45:00,
2013-03-06 12:50:00,59.7,20.8,30.35,NE,54,9.0,12.0,22,0.00,,---,0.00,VWS V14.01,2013-03-06 18:50:00,
2013-03-06 12:55:00,60.2,21.2,30.35,ENE,63,7.0,12.0,22,0.00,,---,0.00,VWS V14.01,2013-03-06 18:55:00,
2013-03-06 13:00:00,60.5,21.5,30.33,NE,46,6.0,9.0,22,0.00,,---,0.00,VWS V14.01,2013-03-06 19:00:00,
2013-03-06 13:05:00,60.5,21.5,30.33,ESE,103,6.0,11.0,22,0.00,,---,0.00,VWS V14.01,2013-03-06 19:05:00,
2013-03-06 13:10:00,60.5,21.5,30.33,ESE,102,4.0,11.0,22,0.00,,---,0.00,VWS V14.01,2013-03-06 19:10:00,
2013-03-06 13:15:00,61.2,22.1,30.33,ENE,77,4.0,11.0,22,0.00,,---,0.00,VWS V14.01,2013-03-06 19:15:00,
2013-03-06 13:20:00,61.4,20.0,30.33,NW,319,4.0,11.0,20,0.00,,---,0.00,VWS V14.01,2013-03-06 19:20:00,
2013-03-06 13:25:00,60.4,19.2,30.32,East,101,3.0,11.0,20,0.00,,---,0.00,VWS V14.01,2013-03-06 19:25:00,
2013-03-06 13:30:00,61.7,21.4,30.32,ENE,67,7.0,7.0,21,0.00,,---,0.00,VWS V14.01,2013-03-06 19:30:00,
2013-03-06 13:35:00,61.4,21.1,30.32,NE,34,5.0,8.0,21,0.00,,---,0.00,VWS V14.01,2013-03-06 19:35:00,
2013-03-06 13:40:00,61.8,20.3,30.31,East,81,6.0,11.0,20,0.00,,---,0.00,VWS V14.01,2013-03-06 19:40:00,
2013-03-06 13:45:00,62.1,19.4,30.31,SE,134,1.0,11.0,19,0.00,,---,0.00,VWS V14.01,2013-03-06 19:45:00,
2013-03-06 13:50:00,62.8,23.4,30.30,ENE,71,3.0,11.0,22,0.00,,---,0.00,VWS V14.01,2013-03-06 19:50:00,
2013-03-06 13:55:00,63.6,20.6,30.29,NE,49,3.0,11.0,19,0.00,,---,0.00,VWS V14.01,2013-03-06 19:55:00,
2013-03-06 14:00:00,64.0,20.9,30.29,NE,50,1.0,2.0,19,0.00,,---,0.00,VWS V14.01,2013-03-06 20:00:00,
2013-03-06 14:05:00,64.2,22.3,30.29,East,94,8.0,8.0,20,0.00,,---,0.00,VWS V14.01,2013-03-06 20:05:00,
2013-03-06 14:10:00,64.1,21.0,30.28,ENE,60,6.0,9.0,19,0.00,,---,0.00,VWS V14.01,2013-03-06 20:10:00,
2013-03-06 14:15:00,64.2,21.1,30.27,ESE,102,2.0,9.0,19,0.00,,---,0.00,VWS V14.01,2013-03-06 20:15:00,
2013-03-06 14:20:00,64.3,19.9,30.27,North,356,2.0,9.0,18,0.00,,---,0.00,VWS V14.01,2013-03-06 20:20:00,
2013-03-06 14:25:00,64.1,17.0,30.27,NNE,30,3.0,9.0,16,0.00,,---,0.00,VWS V14.01,2013-03-06 20:25:00,
2013-03-06 14:30:00,63.6,19.4,30.26,NE,44,5.0,5.0,18,0.00,,---,0.00,VWS V14.01,2013-03-06 20:30:00,
2013-03-06 14:35:00,63.4,16.5,30.26,NE,49,4.0,6.0,16,0.00,,---,0.00,VWS V14.01,2013-03-06 20:35:00,
2013-03-06 14:40:00,62.6,17.2,30.26,NNE,29,3.0,7.0,17,0.00,,---,0.00,VWS V14.01,2013-03-06 20:40:00,
2013-03-06 14:45:00,62.6,21.0,30.26,NE,54,4.0,7.0,20,0.00,,---,0.00,VWS V14.01,2013-03-06 20:45:00,
2013-03-06 14:50:00,62.7,21.1,30.26,East,79,6.0,8.0,20,0.00,,---,0.00,VWS V14.01,2013-03-06 20:50:00,
2013-03-06 14:55:00,62.8,21.2,30.25,ENE,78,2.0,8.0,20,0.00,,---,0.00,VWS V14.01,2013-03-06 20:55:00,
2013-03-06 15:00:00,62.5,18.5,30.25,NE,54,4.0,4.0,18,0.00,,---,0.00,VWS V14.01,2013-03-06 21:00:00,
2013-03-06 15:05:00,62.5,19.7,30.25,NE,41,3.0,7.0,19,0.00,,---,0.00,VWS V14.01,2013-03-06 21:05:00,
2013-03-06 15:10:00,62.3,19.5,30.25,ENE,65,2.0,7.0,19,0.00,,---,0.00,VWS V14.01,2013-03-06 21:10:00,
2013-03-06 15:15:00,62.3,19.5,30.25,East,99,2.0,7.0,19,0.00,,---,0.00,VWS V14.01,2013-03-06 21:15:00,
2013-03-06 15:20:00,62.1,20.6,30.25,ENE,75,2.0,7.0,20,0.00,,---,0.00,VWS V14.01,2013-03-06 21:20:00,
2013-03-06 15:25:00,62.3,19.5,30.25,ENE,60,5.0,7.0,19,0.00,,---,0.00,VWS V14.01,2013-03-06 21:25:00,
2013-03-06 15:30:00,62.2,18.2,30.25,East,85,1.0,1.0,18,0.00,,---,0.00,VWS V14.01,2013-03-06 21:30:00,
2013-03-06 15:35:00,62.2,18.2,30.25,ESE,107,2.0,4.0,18,0.00,,---,0.00,VWS V14.01,2013-03-06 21:35:00,
2013-03-06 15:40:00,62.1,18.1,30.25,East,89,2.0,5.0,18,0.00,,---,0.00,VWS V14.01,2013-03-06 21:40:00,
2013-03-06 15:45:00,62.1,16.8,30.24,ENE,72,6.0,6.0,17,0.00,,---,0.00,VWS V14.01,2013-03-06 21:45:00,
2013-03-06 15:50:00,62.0,16.7,30.24,SSE,152,2.0,6.0,17,0.00,,---,0.00,VWS V14.01,2013-03-06 21:50:00,
2013-03-06 15:55:00,61.8,16.5,30.23,ENE,77,2.0,6.0,17,0.00,,---,0.00,VWS V14.01,2013-03-06 21:55:00,
2013-03-06 16:00:00,61.9,19.2,30.22,East,91,3.0,3.0,19,0.00,,---,0.00,VWS V14.01,2013-03-06 22:00:00,
2013-03-06 16:05:00,61.7,19.0,30.22,East,87,1.0,7.0,19,0.00,,---,0.00,VWS V14.01,2013-03-06 22:05:00,
2013-03-06 16:10:00,61.8,19.1,30.22,East,91,3.0,7.0,19,0.00,,---,0.00,VWS V14.01,2013-03-06 22:10:00,
2013-03-06 16:15:00,61.8,19.1,30.23,SSW,207,2.0,7.0,19,0.00,,---,0.00,VWS V14.01,2013-03-06 22:15:00,
2013-03-06 16:20:00,61.9,19.2,30.24,ESE,118,1.0,7.0,19,0.00,,---,0.00,VWS V14.01,2013-03-06 22:20:00,
2013-03-06 16:32:00,62.0,20.5,30.23,ESE,114,1.0,1.0,20,0.00,,---,0.00,VWS V14.01,2013-03-06 22:32:00,
2013-03-06 16:37:00,62.0,20.5,30.23,SE,141,1.0,3.0,20,0.00,,---,0.00,VWS V14.01,2013-03-06 22:37:00,
2013-03-06 16:42:00,62.0,20.5,30.23,SE,136,1.0,3.0,20,0.00,,---,0.00,VWS V14.01,2013-03-06 22:42:00,
2013-03-06 16:47:00,62.0,19.3,30.22,ESE,114,2.0,3.0,19,0.00,,---,0.00,VWS V14.01,2013-03-06 22:47:00,
2013-03-06 16:52:00,61.9,18.0,30.22,SE,145,3.0,4.0,18,0.00,,---,0.00,VWS V14.01,2013-03-06 22:52:00,
2013-03-06 16:57:00,61.7,17.8,30.22,ESE,103,2.0,5.0,18,0.00,,---,0.00,VWS V14.01,2013-03-06 22:57:00,
2013-03-06 17:02:00,61.6,17.7,30.23,SE,146,1.0,5.0,18,0.00,,---,0.00,VWS V14.01,2013-03-06 23:02:00,
2013-03-06 17:07:00,61.4,16.2,30.23,SSE,150,2.0,6.0,17,0.00,,---,0.00,VWS V14.01,2013-03-06 23:07:00,
2013-03-06 17:12:00,61.3,17.5,30.23,South,177,4.0,6.0,18,0.00,,---,0.00,VWS V14.01,2013-03-06 23:12:00,
2013-03-06 17:17:00,61.2,17.4,30.22,SSE,154,3.0,6.0,18,0.00,,---,0.00,VWS V14.01,2013-03-06 23:17:00,
2013-03-06 17:22:00,61.2,17.4,30.22,ESE,118,1.0,6.0,18,0.00,,---,0.00,VWS V14.01,2013-03-06 23:22:00,
2013-03-06 17:27:00,61.0,17.2,30.22,SSW,198,3.0,6.0,18,0.00,,---,0.00,VWS V14.01,2013-03-06 23:27:00,
2013-03-06 17:32:00,60.9,17.1,30.22,SSE,158,2.0,3.0,18,0.00,,---,0.00,VWS V14.01,2013-03-06 23:32:00,
2013-03-06 17:37:00,61.0,18.5,30.22,ESE,122,1.0,3.0,19,0.00,,---,0.00,VWS V14.01,2013-03-06 23:37:00,
2013-03-06 17:42:00,61.2,18.6,30.22,SSE,148,1.0,4.0,19,0.00,,---,0.00,VWS V14.01,2013-03-06 23:42:00,
2013-03-06 17:47:00,61.5,18.9,30.22,SE,136,3.0,4.0,19,0.00,,---,0.00,VWS V14.01,2013-03-06 23:47:00,
2013-03-06 17:52:00,61.3,18.7,30.23,SSE,165,2.0,4.0,19,0.00,,---,0.00,VWS V14.01,2013-03-06 23:52:00,
2013-03-06 17:57:00,61.1,19.8,30.23,SE,138,2.0,6.0,20,0.00,,---,0.00,VWS V14.01,2013-03-06 23:57:00,
2013-03-06 18:02:00,60.9,19.6,30.23,ESE,103,2.0,3.0,20,0.00,,---,0.00,VWS V14.01,2013-03-07 00:02:00,
2013-03-06 18:07:00,60.6,19.3,30.23,ESE,108,2.0,4.0,20,0.00,,---,0.00,VWS V14.01,2013-03-07 00:07:00,
2013-03-06 18:12:00,60.3,19.1,30.23,SE,144,1.0,4.0,20,0.00,,---,0.00,VWS V14.01,2013-03-07 00:12:00,
2013-03-06 18:17:00,59.9,19.9,30.23,SSE,153,0.0,4.0,21,0.00,,---,0.00,VWS V14.01,2013-03-07 00:17:00,
2013-03-06 18:22:00,59.6,19.6,30.23,SSE,150,1.0,4.0,21,0.00,,---,0.00,VWS V14.01,2013-03-07 00:22:00,
2013-03-06 18:27:00,59.2,19.3,30.23,SSE,154,0.0,4.0,21,0.00,,---,0.00,VWS V14.01,2013-03-07 00:27:00,
2013-03-06 18:32:00,58.7,20.0,30.23,ESE,119,0.0,1.0,22,0.00,,---,0.00,VWS V14.01,2013-03-07 00:32:00,
2013-03-06 18:37:00,57.8,19.2,30.23,ESE,107,0.0,1.0,22,0.00,,---,0.00,VWS V14.01,2013-03-07 00:37:00,
2013-03-06 18:42:00,57.6,20.1,30.23,SE,146,2.0,2.0,23,0.00,,---,0.00,VWS V14.01,2013-03-07 00:42:00,
2013-03-06 18:47:00,57.5,21.0,30.23,SSW,201,1.0,2.0,24,0.00,,---,0.00,VWS V14.01,2013-03-07 00:47:00,
2013-03-06 18:52:00,57.2,20.8,30.23,SW,218,1.0,2.0,24,0.00,,---,0.00,VWS V14.01,2013-03-07 00:52:00,
2013-03-06 18:57:00,57.0,21.5,30.22,SSE,149,0.0,2.0,25,0.00,,---,0.00,VWS V14.01,2013-03-07 00:57:00,
2013-03-06 19:02:00,56.8,21.4,30.22,SE,128,0.0,1.0,25,0.00,,---,0.00,VWS V14.01,2013-03-07 01:02:00,
2013-03-06 19:07:00,56.4,22.0,30.22,East,98,0.0,1.0,26,0.00,,---,0.00,VWS V14.01,2013-03-07 01:07:00,
2013-03-06 19:12:00,56.1,22.6,30.22,ESE,120,0.0,1.0,27,0.00,,---,0.00,VWS V14.01,2013-03-07 01:12:00,
2013-03-06 19:17:00,56.0,22.5,30.21,ESE,110,0.0,1.0,27,0.00,,---,0.00,VWS V14.01,2013-03-07 01:17:00,
2013-03-06 19:22:00,56.0,21.6,30.21,SSE,162,0.0,1.0,26,0.00,,---,0.00,VWS V14.01,2013-03-07 01:22:00,
2013-03-06 19:27:00,55.9,22.4,30.21,SE,129,0.0,1.0,27,0.00,,---,0.00,VWS V14.01,2013-03-07 01:27:00,
2013-03-06 19:32:00,55.9,21.5,30.21,ESE,115,0.0,1.0,26,0.00,,---,0.00,VWS V14.01,2013-03-07 01:32:00,
2013-03-06 19:37:00,56.0,21.6,30.21,SSE,150,0.0,2.0,26,0.00,,---,0.00,VWS V14.01,2013-03-07 01:37:00,
2013-03-06 19:42:00,56.1,22.6,30.21,SSW,198,1.0,2.0,27,0.00,,---,0.00,VWS V14.01,2013-03-07 01:42:00,
2013-03-06 19:47:00,56.0,22.5,30.22,SE,141,0.0,2.0,27,0.00,,---,0.00,VWS V14.01,2013-03-07 01:47:00,
2013-03-06 19:52:00,55.8,22.3,30.22,SSW,202,0.0,2.0,27,0.00,,---,0.00,VWS V14.01,2013-03-07 01:52:00,
2013-03-06 19:57:00,55.7,22.3,30.23,SW,217,0.0,2.0,27,0.00,,---,0.00,VWS V14.01,2013-03-07 01:57:00,
2013-03-06 20:02:00,55.4,22.9,30.23,SSW,203,2.0,2.0,28,0.00,,---,0.00,VWS V14.01,2013-03-07 02:02:00,
2013-03-06 20:07:00,55.1,23.4,30.24,SW,225,1.0,3.0,29,0.00,,---,0.00,VWS V14.01,2013-03-07 02:07:00,
2013-03-06 20:12:00,54.8,23.2,30.23,SW,224,1.0,3.0,29,0.00,,---,0.00,VWS V14.01,2013-03-07 02:12:00,
2013-03-06 20:17:00,54.6,23.0,30.23,SSW,201,0.0,3.0,29,0.00,,---,0.00,VWS V14.01,2013-03-07 02:17:00,
2013-03-06 20:22:00,54.1,23.4,30.22,SSW,200,0.0,3.0,30,0.00,,---,0.00,VWS V14.01,2013-03-07 02:22:00,
2013-03-06 20:27:00,53.8,22.3,30.22,South,188,0.0,3.0,29,0.00,,---,0.00,VWS V14.01,2013-03-07 02:27:00,
2013-03-06 20:32:00,53.6,22.9,30.22,South,185,0.0,0.0,30,0.00,,---,0.00,VWS V14.01,2013-03-07 02:32:00,
2013-03-06 20:37:00,53.4,22.8,30.22,SSW,195,0.0,1.0,30,0.00,,---,0.00,VWS V14.01,2013-03-07 02:37:00,
2013-03-06 20:42:00,53.4,22.8,30.22,SSW,206,0.0,1.0,30,0.00,,---,0.00,VWS V14.01,2013-03-07 02:42:00,
2013-03-06 20:47:00,53.1,22.5,30.23,SSW,207,0.0,1.0,30,0.00,,---,0.00,VWS V14.01,2013-03-07 02:47:00,
2013-03-06 20:52:00,52.9,22.3,30.23,SSW,207,0.0,1.0,30,0.00,,---,0.00,VWS V14.01,2013-03-07 02:52:00,
2013-03-06 20:57:00,52.7,22.9,30.22,SSW,207,0.0,1.0,31,0.00,,---,0.00,VWS V14.01,2013-03-07 02:57:00,
2013-03-06 21:02:00,52.4,23.4,30.23,SSW,207,0.0,0.0,32,0.00,,---,0.00,VWS V14.01,2013-03-07 03:02:00,
2013-03-06 21:07:00,52.0,22.3,30.23,SSW,210,0.0,0.0,31,0.00,,---,0.00,VWS V14.01,2013-03-07 03:07:00,
2013-03-06 21:12:00,51.9,23.0,30.22,SSW,210,0.0,0.0,32,0.00,,---,0.00,VWS V14.01,2013-03-07 03:12:00,
2013-03-06 21:16:00,51.7,22.8,30.22,SSW,209,0.0,0.0,32,0.00,,---,0.00,VWS V14.01,2013-03-07 03:16:00,
2013-03-06 21:21:00,51.4,22.5,30.22,SSW,210,0.0,0.0,32,0.00,,---,0.00,VWS V14.01,2013-03-07 03:21:00,
2013-03-06 21:26:00,51.4,22.5,30.23,SSW,209,0.0,0.0,32,0.00,,---,0.00,VWS V14.01,2013-03-07 03:26:00,
2013-03-06 21:31:00,51.1,22.3,30.23,SSW,210,0.0,0.0,32,0.00,,---,0.00,VWS V14.01,2013-03-07 03:31:00,
2013-03-06 21:36:00,50.8,22.0,30.24,SSW,210,0.0,0.0,32,0.00,,---,0.00,VWS V14.01,2013-03-07 03:36:00,
2013-03-06 21:41:00,50.3,22.3,30.23,SSW,210,0.0,0.0,33,0.00,,---,0.00,VWS V14.01,2013-03-07 03:41:00,
2013-03-06 21:46:00,50.0,22.8,30.24,SSW,210,0.0,0.0,34,0.00,,---,0.00,VWS V14.01,2013-03-07 03:46:00,
2013-03-06 21:51:00,49.3,22.8,30.24,SSW,210,0.0,0.0,35,0.00,,---,0.00,VWS V14.01,2013-03-07 03:51:00,
2013-03-06 21:56:00,49.0,22.6,30.23,SSW,210,0.0,0.0,35,0.00,,---,0.00,VWS V14.01,2013-03-07 03:56:00,
2013-03-06 22:01:00,48.9,22.5,30.23,SSW,209,0.0,0.0,35,0.00,,---,0.00,VWS V14.01,2013-03-07 04:01:00,
2013-03-06 22:06:00,48.7,23.0,30.23,SSW,210,0.0,0.0,36,0.00,,---,0.00,VWS V14.01,2013-03-07 04:06:00,
2013-03-06 22:11:00,48.7,22.3,30.23,SSW,210,0.0,0.0,35,0.00,,---,0.00,VWS V14.01,2013-03-07 04:11:00,
2013-03-06 22:16:00,48.9,22.5,30.23,SSW,210,0.0,0.0,35,0.00,,---,0.00,VWS V14.01,2013-03-07 04:16:00,
2013-03-06 22:21:00,49.1,22.6,30.22,SSW,209,0.0,0.0,35,0.00,,---,0.00,VWS V14.01,2013-03-07 04:21:00,
2013-03-06 22:26:00,49.6,23.1,30.22,SSW,210,0.0,0.0,35,0.00,,---,0.00,VWS V14.01,2013-03-07 04:26:00,
2013-03-06 22:31:00,49.6,22.4,30.22,SSW,210,0.0,0.0,34,0.00,,---,0.00,VWS V14.01,2013-03-07 04:31:00,
2013-03-06 22:36:00,49.3,22.1,30.22,SSW,210,0.0,0.0,34,0.00,,---,0.00,VWS V14.01,2013-03-07 04:36:00,
2013-03-06 22:41:00,49.2,22.0,30.23,SSW,210,0.0,0.0,34,0.00,,---,0.00,VWS V14.01,2013-03-07 04:41:00,
2013-03-06 22:46:00,49.2,22.7,30.23,SE,131,1.0,1.0,35,0.00,,---,0.00,VWS V14.01,2013-03-07 04:46:00,
2013-03-06 22:51:00,49.5,23.0,30.23,SSE,151,0.0,4.0,35,0.00,,---,0.00,VWS V14.01,2013-03-07 04:51:00,
2013-03-06 22:56:00,49.3,22.8,30.23,SSW,212,0.0,4.0,35,0.00,,---,0.00,VWS V14.01,2013-03-07 04:56:00,
2013-03-06 23:00:00,49.1,22.6,30.23,SSE,150,1.0,4.0,35,0.00,,---,0.00,VWS V14.01,2013-03-07 05:00:00,
2013-03-06 23:05:00,49.1,24.0,30.23,SSW,204,0.0,3.0,37,0.00,,---,0.00,VWS V14.01,2013-03-07 05:05:00,
2013-03-06 23:10:00,48.9,23.8,30.23,South,191,0.0,3.0,37,0.00,,---,0.00,VWS V14.01,2013-03-07 05:10:00,
2013-03-06 23:15:00,48.9,25.0,30.23,SSW,193,2.0,3.0,39,0.00,,---,0.00,VWS V14.01,2013-03-07 05:15:00,
2013-03-06 23:20:00,48.7,25.5,30.23,SSE,152,1.0,3.0,40,0.00,,---,0.00,VWS V14.01,2013-03-07 05:20:00,
2013-03-06 23:25:00,48.4,25.8,30.23,SSW,198,2.0,3.0,41,0.00,,---,0.00,VWS V14.01,2013-03-07 05:25:00,
2013-03-06 23:30:00,48.1,26.1,30.22,SSW,193,1.0,2.0,42,0.00,,---,0.00,VWS V14.01,2013-03-07 05:30:00,
2013-03-06 23:35:00,47.8,25.8,30.22,SSW,205,1.0,3.0,42,0.00,,---,0.00,VWS V14.01,2013-03-07 05:35:00,
2013-03-06 23:40:00,47.5,26.1,30.22,SW,216,0.0,3.0,43,0.00,,---,0.00,VWS V14.01,2013-03-07 05:40:00,
2013-03-06 23:45:00,47.3,26.0,30.22,SSW,197,1.0,3.0,43,0.00,,---,0.00,VWS V14.01,2013-03-07 05:45:00,
2013-03-06 23:50:00,47.2,27.0,30.22,SSW,212,2.0,3.0,45,0.00,,---,0.00,VWS V14.01,2013-03-07 05:50:00,
2013-03-06 23:55:00,47.2,28.0,30.22,SSW,211,1.0,3.0,47,0.00,,---,0.00,VWS V14.01,2013-03-07 05:55:00,